EW6866 Weather Reports


Display with metric or nautical units.
time (UTC)temp
F
wind
direction
speed
MPH
gust
MPH
rain 1hr
in
rain 24hr
in
rain mn
in
humidity
%
barometer
mb
20260506101505 62 255 0.0 2.0 0.00 0.00 0.00 91 1014.3
20260506100005 62 296 0.0 1.0 0.00 0.00 0.00 91 1014.1
20260506094524 62 279 0.0 2.0 0.00 0.00 0.00 91 1014.3
20260506093025 63 212 0.0 4.0 0.00 0.00 0.00 90 1014.3
20260506091525 63 247 0.0 4.0 0.00 0.00 0.00 90 1014.6
20260506090004 63 203 0.0 3.0 0.00 0.00 0.00 90 1014.7
20260506084524 63 229 0.0 4.0 0.00 0.00 0.00 90 1014.6
20260506083005 63 255 0.0 4.0 0.00 0.00 0.00 90 1014.5
20260506081503 63 185 0.0 4.0 0.00 0.00 0.00 89 1014.5
20260506073006 63 230 0.0 3.0 0.00 0.00 0.00 88 1014.5
20260506071505 64 224 0.0 3.0 0.00 0.00 0.00 88 1014.4
20260506061526 64 170 0.0 4.0 0.00 0.00 0.00 87 1014.9
20260506044526 65 264 1.0 6.0 0.00 0.00 0.00 87 1015.6
20260506043005 65 230 1.0 7.0 0.00 0.00 0.00 87 1015.8
20260506041505 65 254 0.0 3.0 0.00 0.00 0.00 86 1015.8
20260506040006 65 263 0.0 4.0 0.00 0.00 0.00 85 1015.8
20260506034505 65 226 0.0 4.0 0.00 0.00 0.00 83 1015.7
20260506033026 66 274 0.0 4.0 0.00 0.00 0.00 82 1015.7
20260506031505 66 260 0.0 5.0 0.00 0.00 0.00 81 1015.7
20260506030005 66 242 1.0 6.0 0.00 0.00 0.00 80 1015.8
20260506024505 67 263 1.0 6.0 0.00 0.00 0.00 79 1015.8
20260506023005 67 256 1.0 6.0 0.00 0.00 0.00 77 1015.7
20260506021505 67 250 1.0 6.0 0.00 0.00 0.00 76 1015.8
20260506020004 68 253 1.0 6.0 0.00 0.00 0.00 76 1015.7
20260506014505 68 247 1.0 5.0 0.00 0.00 0.00 75 1015.5
20260506013005 68 199 1.0 6.0 0.00 0.00 0.00 75 1015.4
20260506011505 68 259 1.0 6.0 0.00 0.00 0.00 73 1015.3
20260506010005 69 257 1.0 7.0 0.00 0.00 0.00 73 1015.3
20260506004505 69 247 1.0 7.0 0.00 0.00 0.00 72 1015.2
20260506003004 70 229 1.0 6.0 0.00 0.00 0.00 71 1015.0
20260506001505 70 239 1.0 6.0 0.00 0.00 0.00 70 1014.9
20260506000005 71 262 1.0 6.0 0.00 0.00 0.00 69 1014.8
20260505234505 71 255 2.0 10.0 0.00 0.00 0.00 68 1014.5
20260505233005 72 242 2.0 7.0 0.00 0.00 0.00 67 1014.5
20260505231504 73 259 2.0 7.0 0.00 0.00 0.00 66 1014.3
20260505230005 73 244 2.0 9.0 0.00 0.00 0.00 66 1014.2
20260505224504 74 263 2.0 10.0 0.00 0.00 0.00 65 1014.2
20260505223005 74 240 2.0 11.0 0.00 0.00 0.00 65 1014.3
20260505221506 74 239 2.0 10.0 0.00 0.00 0.00 66 1014.3
20260505220005 75 251 2.0 11.0 0.00 0.00 0.00 65 1014.3
20260505214504 75 243 2.0 9.0 0.00 0.00 0.00 64 1014.2
20260505213005 76 254 2.0 10.0 0.00 0.00 0.00 62 1014.0
20260505211504 78 246 3.0 9.0 0.00 0.00 0.00 61 1014.0
20260505210005 79 233 2.0 9.0 0.00 0.00 0.00 59 1014.0
20260505204505 81 255 1.0 7.0 0.00 0.00 0.00 58 1014.0
20260505203004 80 267 2.0 6.0 0.00 0.00 0.00 58 1014.0
20260505201526 80 231 2.0 9.0 0.00 0.00 0.00 54 1014.3
20260505200025 80 273 2.0 10.0 0.00 0.00 0.00 55 1014.5
20260505194526 81 215 2.0 9.0 0.00 0.00 0.00 52 1014.7
20260505193005 81 244 2.0 9.0 0.00 0.00 0.00 49 1014.9
20260505191504 81 285 2.0 5.0 0.00 0.00 0.00 50 1015.0
20260505190004 81 242 2.0 10.0 0.00 0.00 0.00 50 1015.2
20260505184504 81 280 2.0 11.0 0.00 0.00 0.00 49 1015.3
20260505183004 81 258 2.0 11.0 0.00 0.00 0.00 51 1015.3
20260505181525 82 245 1.0 7.0 0.00 0.00 0.00 50 1015.4
20260505180005 82 226 1.0 6.0 0.00 0.00 0.00 52 1015.4
20260505174525 81 202 2.0 7.0 0.00 0.00 0.00 51 1015.6
20260505173004 80 247 2.0 6.0 0.00 0.00 0.00 48 1015.7
20260505171525 80 263 2.0 8.0 0.00 0.00 0.00 51 1015.8
20260505170004 80 251 2.0 8.0 0.00 0.00 0.00 49 1016.1
20260505164504 80 191 2.0 6.0 0.00 0.00 0.00 50 1016.3
20260505163004 79 196 2.0 8.0 0.00 0.00 0.00 54 1016.3
20260505161504 78 204 2.0 9.0 0.00 0.00 0.00 54 1016.5
20260505153004 76 222 2.0 9.0 0.00 0.00 0.00 57 1016.8
20260505151504 76 191 2.0 8.0 0.00 0.00 0.00 59 1016.7
20260505124504 66 184 1.0 8.0 0.00 0.00 0.00 75 1016.9
20260505123004 65 204 1.0 4.0 0.00 0.00 0.00 78 1016.8
20260505121504 64 220 1.0 7.0 0.00 0.00 0.00 80 1016.8
20260505120005 62 191 0.0 2.0 0.00 0.00 0.00 83 1016.9
20260505114504 61 140 0.0 3.0 0.00 0.00 0.00 85 1016.8
20260505113004 60 171 0.0 3.0 0.00 0.00 0.00 86 1016.7
20260505111503 59 192 0.0 1.0 0.00 0.00 0.00 87 1016.7